Weather in Shaymenskiy

Russia / Kostroma Oblast     58°52′01″N   46°13′38″E
temp.,
°C
wind,
m/s
gust,
m/s
humid.,
%
clouds,
%
prec.,
mm/h
press.,
hPa
HPBL,
m
19 may, wed
wed1900:00+15se3107992 0.1 1018254
03:00+14ese2984100 0.1 1018190
06:00+17ese3107412 0.0 1018309
09:00+22se475436 0.0 1018710
12:00+26se57435 0.0 10171303
15:00+26se56383 0.0 10171564
18:00+23se48485 0.0 1016619
21:00+16ese311745 0.0 1017239
20 may, thu
thu2000:00+14se210826 0.0 1016213
03:00+13ese310885 0.0 1016223
06:00+17se310755 0.0 1015307
09:00+23se47530 0.0 1015900
12:00+26se58385 0.0 10132114
15:00+26se59360 0.0 10122549
18:00+23se59470 0.0 10101224
21:00+18se5136361 0.1 1009605
21 may, fri
fri2100:00+16ese31175100 0.1 1008420
03:00+15se4118989 0.3 1007782
06:00+15s498612 0.3 1008609
09:00+19s5864100 0.4 10081420
12:00+19s576866 1.4 10081456
15:00+18sw467736 3.3 1009984
18:00+15sw488578 1.8 1009662
21:00+12sw4109580 2.1 1011439
22 may, sat
sat2200:00+12wsw41096100 0.1 1013607
03:00+10wsw3898100 0.1 1015281
06:00+12wsw38874 0.0 1016330
09:00+17wsw37504 0.0 10171702
12:00+17wsw3747100 0.0 10171780
15:00+20wsw57336 0.0 10172605
18:00+18w36475 0.0 1017564
21:00+12sw227170 0.0 101918
23 may, sun
sun2300:00+10sw2274100 0.0 101930
03:00+8ssw238081 0.0 102059
06:00+12ssw36714 0.0 1020233
09:00+18ssw354971 0.0 10191165
12:00+21s35370 0.0 10181863
15:00+22s4542100 0.0 10161754
18:00+19sse3765100 0.0 1015996
21:00+15se21094100 0.3 1014318